Time,TemperatureF,DewpointF,PressureIn,WindDirection,WindDirectionDegrees,WindSpeedMPH,WindSpeedGustMPH,Humidity,HourlyPrecipIn,Conditions,Clouds,dailyrainin,SoftwareType,DateUTC
2013-01-07 00:22:00,31.0,26.0,29.87,SSE,158,1.0,-999.0,81,-99.99,,,-99.99,,2013-01-07 05:22:00,
2013-01-07 00:33:00,31.0,26.0,29.87,SSE,158,1.0,-999.0,81,-99.99,,,-99.99,,2013-01-07 05:33:00,
2013-01-07 00:43:00,31.0,26.0,29.87,SSE,158,1.0,-999.0,81,-99.99,,,-99.99,,2013-01-07 05:43:00,
2013-01-07 00:53:00,30.0,26.0,29.90,SSE,160,0.0,-999.0,84,-99.99,,,-99.99,,2013-01-07 05:53:00,
2013-01-07 01:02:00,30.0,26.0,29.90,SSE,160,0.0,-999.0,84,-99.99,,,-99.99,,2013-01-07 06:02:00,
2013-01-07 01:12:00,30.0,26.0,29.90,SSE,160,0.0,-999.0,84,-99.99,,,-99.99,,2013-01-07 06:12:00,
2013-01-07 01:22:00,29.0,25.0,29.91,NNW,346,0.0,-999.0,85,-99.99,,,-99.99,,2013-01-07 06:22:00,
2013-01-07 01:32:00,30.0,26.0,29.91,WNW,299,1.0,-999.0,85,-99.99,,,-99.99,,2013-01-07 06:32:00,
2013-01-07 01:42:00,30.0,26.0,29.91,WNW,299,1.0,-999.0,85,-99.99,,,-99.99,,2013-01-07 06:42:00,
2013-01-07 01:52:00,31.0,26.0,29.92,West,277,1.0,-999.0,82,-99.99,,,-99.99,,2013-01-07 06:52:00,
2013-01-07 02:02:00,32.0,27.0,29.92,WNW,284,1.0,-999.0,80,-99.99,,,-99.99,,2013-01-07 07:02:00,
2013-01-07 02:12:00,32.0,27.0,29.92,WNW,284,1.0,-999.0,80,-99.99,,,-99.99,,2013-01-07 07:12:00,
2013-01-07 02:22:00,32.0,27.0,29.92,WNW,284,1.0,-999.0,80,-99.99,,,-99.99,,2013-01-07 07:22:00,
2013-01-07 02:33:00,32.0,27.0,29.92,WNW,284,1.0,-999.0,80,-99.99,,,-99.99,,2013-01-07 07:33:00,
2013-01-07 02:42:00,32.0,27.0,29.92,WNW,284,1.0,-999.0,80,-99.99,,,-99.99,,2013-01-07 07:42:00,
2013-01-07 02:53:00,32.0,27.0,29.94,WNW,295,0.0,-999.0,81,-99.99,,,-99.99,,2013-01-07 07:53:00,
2013-01-07 03:03:00,32.0,27.0,29.94,WNW,295,0.0,-999.0,81,-99.99,,,-99.99,,2013-01-07 08:03:00,
2013-01-07 03:12:00,32.0,27.0,29.94,WNW,295,0.0,-999.0,81,-99.99,,,-99.99,,2013-01-07 08:12:00,
2013-01-07 03:22:00,32.0,27.0,29.94,WNW,295,0.0,-999.0,81,-99.99,,,-99.99,,2013-01-07 08:22:00,
2013-01-07 03:32:00,30.0,26.0,29.95,WSW,257,0.0,-999.0,85,-99.99,,,-99.99,,2013-01-07 08:32:00,
2013-01-07 03:43:00,30.0,26.0,29.95,WSW,257,0.0,-999.0,85,-99.99,,,-99.99,,2013-01-07 08:43:00,
2013-01-07 03:53:00,31.0,27.0,29.95,SW,234,0.0,-999.0,85,-99.99,,,-99.99,,2013-01-07 08:53:00,
2013-01-07 04:02:00,32.0,27.0,29.95,NNW,340,1.0,-999.0,83,-99.99,,,-99.99,,2013-01-07 09:02:00,
2013-01-07 04:12:00,32.0,27.0,29.95,NNW,340,1.0,-999.0,83,-99.99,,,-99.99,,2013-01-07 09:12:00,
2013-01-07 04:22:00,33.0,28.0,29.95,NW,312,1.0,-999.0,82,-99.99,,,-99.99,,2013-01-07 09:22:00,
2013-01-07 04:32:00,33.0,28.0,29.95,NW,312,1.0,-999.0,82,-99.99,,,-99.99,,2013-01-07 09:32:00,
2013-01-07 04:42:00,33.0,28.0,29.95,NW,312,1.0,-999.0,82,-99.99,,,-99.99,,2013-01-07 09:42:00,
2013-01-07 04:53:00,33.0,28.0,29.96,WNW,291,3.0,-999.0,80,-99.99,,,-99.99,,2013-01-07 09:53:00,
2013-01-07 05:02:00,33.0,28.0,29.97,NW,305,3.0,-999.0,81,-99.99,,,-99.99,,2013-01-07 10:02:00,
2013-01-07 05:12:00,33.0,28.0,29.97,NW,306,3.0,-999.0,81,-99.99,,,-99.99,,2013-01-07 10:12:00,
2013-01-07 05:22:00,33.0,28.0,29.97,NW,306,3.0,-999.0,81,-99.99,,,-99.99,,2013-01-07 10:22:00,
2013-01-07 05:32:00,33.0,28.0,29.97,NW,306,3.0,-999.0,81,-99.99,,,-99.99,,2013-01-07 10:32:00,
2013-01-07 05:42:00,33.0,28.0,29.97,NW,306,3.0,-999.0,81,-99.99,,,-99.99,,2013-01-07 10:42:00,
2013-01-07 05:52:00,33.0,28.0,29.97,NW,306,3.0,-999.0,81,-99.99,,,-99.99,,2013-01-07 10:52:00,
2013-01-07 06:02:00,33.0,28.0,29.97,NW,306,3.0,-999.0,81,-99.99,,,-99.99,,2013-01-07 11:02:00,
2013-01-07 06:23:00,32.0,27.0,30.03,North,360,6.0,-999.0,82,-99.99,,,-99.99,,2013-01-07 11:23:00,
2013-01-07 06:33:00,32.0,27.0,30.03,North,360,6.0,-999.0,82,-99.99,,,-99.99,,2013-01-07 11:33:00,
2013-01-07 06:43:00,32.0,27.0,30.03,North,360,6.0,-999.0,82,-99.99,,,-99.99,,2013-01-07 11:43:00,
2013-01-07 06:53:00,32.0,27.0,30.03,North,360,6.0,-999.0,82,-99.99,,,-99.99,,2013-01-07 11:53:00,
2013-01-07 07:03:00,29.0,25.0,30.04,NW,305,3.0,-999.0,83,-99.99,,,-99.99,,2013-01-07 12:03:00,
2013-01-07 07:12:00,29.0,25.0,30.04,NW,305,3.0,-999.0,83,-99.99,,,-99.99,,2013-01-07 12:12:00,
2013-01-07 07:23:00,29.0,25.0,30.04,NW,305,3.0,-999.0,83,-99.99,,,-99.99,,2013-01-07 12:23:00,
2013-01-07 07:33:00,28.0,24.0,30.08,North,359,3.0,-999.0,83,-99.99,,,-99.99,,2013-01-07 12:33:00,
2013-01-07 07:43:00,28.0,24.0,30.08,North,359,3.0,-999.0,83,-99.99,,,-99.99,,2013-01-07 12:43:00,
2013-01-07 07:53:00,28.0,24.0,30.08,North,359,3.0,-999.0,83,-99.99,,,-99.99,,2013-01-07 12:53:00,
2013-01-07 08:03:00,28.0,24.0,30.08,North,359,3.0,-999.0,83,-99.99,,,-99.99,,2013-01-07 13:03:00,
2013-01-07 08:12:00,28.0,24.0,30.08,North,359,3.0,-999.0,83,-99.99,,,-99.99,,2013-01-07 13:12:00,
2013-01-07 08:23:00,27.0,21.0,30.10,North,353,9.0,-999.0,77,-99.99,,,-99.99,,2013-01-07 13:23:00,
2013-01-07 08:33:00,26.0,20.0,30.11,WNW,302,7.0,-999.0,78,-99.99,,,-99.99,,2013-01-07 13:33:00,
2013-01-07 08:43:00,26.0,20.0,30.11,WNW,302,7.0,-999.0,78,-99.99,,,-99.99,,2013-01-07 13:43:00,
2013-01-07 08:53:00,26.0,20.0,30.11,WNW,302,7.0,-999.0,78,-99.99,,,-99.99,,2013-01-07 13:53:00,
2013-01-07 09:03:00,26.0,18.0,30.15,North,8,9.0,-999.0,72,-99.99,,,-99.99,,2013-01-07 14:03:00,
2013-01-07 09:12:00,26.0,18.0,30.15,North,8,9.0,-999.0,72,-99.99,,,-99.99,,2013-01-07 14:12:00,
2013-01-07 09:23:00,26.0,18.0,30.15,North,8,9.0,-999.0,72,-99.99,,,-99.99,,2013-01-07 14:23:00,
2013-01-07 09:33:00,25.0,17.0,30.19,NNW,332,11.0,-999.0,71,-99.99,,,-99.99,,2013-01-07 14:33:00,
2013-01-07 09:43:00,25.0,17.0,30.19,NNW,332,11.0,-999.0,71,-99.99,,,-99.99,,2013-01-07 14:43:00,
2013-01-07 09:53:00,26.0,18.0,30.20,WNW,292,10.0,-999.0,70,-99.99,,,-99.99,,2013-01-07 14:53:00,
2013-01-07 10:03:00,26.0,17.0,30.22,North,360,8.0,-999.0,69,-99.99,,,-99.99,,2013-01-07 15:03:00,
2013-01-07 10:12:00,26.0,17.0,30.22,North,360,8.0,-999.0,69,-99.99,,,-99.99,,2013-01-07 15:12:00,
2013-01-07 10:22:00,27.0,18.0,30.21,NW,323,7.0,-999.0,67,-99.99,,,-99.99,,2013-01-07 15:22:00,
2013-01-07 10:33:00,27.0,18.0,30.21,NW,323,7.0,-999.0,67,-99.99,,,-99.99,,2013-01-07 15:33:00,
2013-01-07 10:43:00,27.0,18.0,30.21,NW,323,7.0,-999.0,67,-99.99,,,-99.99,,2013-01-07 15:43:00,
2013-01-07 10:53:00,28.0,17.0,30.22,NW,318,10.0,-999.0,64,-99.99,,,-99.99,,2013-01-07 15:53:00,
2013-01-07 11:02:00,28.0,17.0,30.22,NW,318,10.0,-999.0,64,-99.99,,,-99.99,,2013-01-07 16:02:00,
2013-01-07 11:12:00,28.0,17.0,30.22,NW,318,10.0,-999.0,64,-99.99,,,-99.99,,2013-01-07 16:12:00,
2013-01-07 11:22:00,28.0,17.0,30.22,NNW,346,6.0,-999.0,64,-99.99,,,-99.99,,2013-01-07 16:22:00,
2013-01-07 11:33:00,28.0,17.0,30.22,NNW,346,6.0,-999.0,64,-99.99,,,-99.99,,2013-01-07 16:33:00,
2013-01-07 11:43:00,28.0,17.0,30.22,NNW,346,6.0,-999.0,64,-99.99,,,-99.99,,2013-01-07 16:43:00,
2013-01-07 11:53:00,29.0,17.0,30.22,WNW,294,8.0,-999.0,61,-99.99,,,-99.99,,2013-01-07 16:53:00,
2013-01-07 12:03:00,29.0,17.0,30.22,NW,322,7.0,-999.0,60,-99.99,,,-99.99,,2013-01-07 17:03:00,
2013-01-07 12:12:00,29.0,17.0,30.22,NW,322,7.0,-999.0,60,-99.99,,,-99.99,,2013-01-07 17:12:00,
2013-01-07 12:23:00,29.0,16.0,30.22,NNE,13,9.0,-999.0,59,-99.99,,,-99.99,,2013-01-07 17:23:00,
2013-01-07 12:33:00,29.0,16.0,30.23,NW,308,6.0,-999.0,57,-99.99,,,-99.99,,2013-01-07 17:33:00,
2013-01-07 12:42:00,29.0,16.0,30.23,NW,308,6.0,-999.0,57,-99.99,,,-99.99,,2013-01-07 17:42:00,
2013-01-07 12:53:00,29.0,16.0,30.23,NW,308,6.0,-999.0,57,-99.99,,,-99.99,,2013-01-07 17:53:00,
2013-01-07 13:03:00,29.0,16.0,30.23,NW,308,6.0,-999.0,57,-99.99,,,-99.99,,2013-01-07 18:03:00,
2013-01-07 13:12:00,29.0,16.0,30.23,NW,308,6.0,-999.0,57,-99.99,,,-99.99,,2013-01-07 18:12:00,
2013-01-07 13:23:00,30.0,15.0,30.22,NNW,340,2.0,-999.0,54,-99.99,,,-99.99,,2013-01-07 18:23:00,
2013-01-07 13:33:00,30.0,15.0,30.23,NW,319,2.0,-999.0,52,-99.99,,,-99.99,,2013-01-07 18:33:00,
2013-01-07 13:43:00,30.0,15.0,30.23,NW,319,2.0,-999.0,52,-99.99,,,-99.99,,2013-01-07 18:43:00,
2013-01-07 13:53:00,30.0,15.0,30.24,NW,320,3.0,-999.0,54,-99.99,,,-99.99,,2013-01-07 18:53:00,
2013-01-07 14:03:00,30.0,15.0,30.24,NW,308,1.0,-999.0,53,-99.99,,,-99.99,,2013-01-07 19:03:00,
2013-01-07 14:12:00,30.0,15.0,30.24,NW,308,1.0,-999.0,53,-99.99,,,-99.99,,2013-01-07 19:12:00,
2013-01-07 14:23:00,30.0,15.0,30.24,NW,308,1.0,-999.0,53,-99.99,,,-99.99,,2013-01-07 19:23:00,
2013-01-07 14:33:00,30.0,15.0,30.25,WNW,302,1.0,-999.0,53,-99.99,,,-99.99,,2013-01-07 19:33:00,
2013-01-07 14:43:00,30.0,15.0,30.25,WNW,302,1.0,-999.0,53,-99.99,,,-99.99,,2013-01-07 19:43:00,
2013-01-07 14:53:00,30.0,15.0,30.25,NW,311,0.0,-999.0,52,-99.99,,,-99.99,,2013-01-07 19:53:00,
2013-01-07 15:03:00,30.0,15.0,30.24,North,360,0.0,-999.0,52,-99.99,,,-99.99,,2013-01-07 20:03:00,
2013-01-07 15:12:00,30.0,15.0,30.24,North,360,0.0,-999.0,52,-99.99,,,-99.99,,2013-01-07 20:12:00,
2013-01-07 15:23:00,30.0,15.0,30.25,WNW,302,0.0,-999.0,52,-99.99,,,-99.99,,2013-01-07 20:23:00,
2013-01-07 15:33:00,30.0,13.0,30.25,NNW,337,1.0,-999.0,48,-99.99,,,-99.99,,2013-01-07 20:33:00,
2013-01-07 15:42:00,30.0,13.0,30.25,NNW,337,1.0,-999.0,48,-99.99,,,-99.99,,2013-01-07 20:42:00,
2013-01-07 15:53:00,29.0,11.0,30.27,NW,308,1.0,-999.0,47,-99.99,,,-99.99,,2013-01-07 20:53:00,
2013-01-07 16:03:00,29.0,12.0,30.27,NW,319,0.0,-999.0,48,-99.99,,,-99.99,,2013-01-07 21:03:00,
2013-01-07 16:12:00,29.0,12.0,30.27,NW,319,0.0,-999.0,48,-99.99,,,-99.99,,2013-01-07 21:12:00,
2013-01-07 16:23:00,29.0,12.0,30.27,NNW,333,0.0,-999.0,49,-99.99,,,-99.99,,2013-01-07 21:23:00,
2013-01-07 16:33:00,28.0,12.0,30.27,NNW,333,0.0,-999.0,51,-99.99,,,-99.99,,2013-01-07 21:33:00,
2013-01-07 16:43:00,28.0,12.0,30.27,NNW,333,0.0,-999.0,51,-99.99,,,-99.99,,2013-01-07 21:43:00,
2013-01-07 16:53:00,28.0,12.0,30.27,NNW,333,0.0,-999.0,51,-99.99,,,-99.99,,2013-01-07 21:53:00,
2013-01-07 17:03:00,28.0,12.0,30.27,NNW,333,0.0,-999.0,51,-99.99,,,-99.99,,2013-01-07 22:03:00,
2013-01-07 17:12:00,28.0,12.0,30.27,NNW,333,0.0,-999.0,51,-99.99,,,-99.99,,2013-01-07 22:12:00,
2013-01-07 18:03:00,26.0,12.0,30.29,NNW,333,0.0,-999.0,54,-99.99,,,-99.99,,2013-01-07 23:03:00,
2013-01-07 18:12:00,26.0,12.0,30.29,NNW,333,0.0,-999.0,54,-99.99,,,-99.99,,2013-01-07 23:12:00,
2013-01-07 18:23:00,26.0,12.0,30.29,NNW,333,0.0,-999.0,54,-99.99,,,-99.99,,2013-01-07 23:23:00,
2013-01-07 18:33:00,25.0,12.0,30.29,NNW,333,0.0,-999.0,56,-99.99,,,-99.99,,2013-01-07 23:33:00,
2013-01-07 18:43:00,25.0,12.0,30.29,NNW,333,0.0,-999.0,56,-99.99,,,-99.99,,2013-01-07 23:43:00,
2013-01-07 18:53:00,25.0,12.0,30.28,SSE,168,0.0,-999.0,56,-99.99,,,-99.99,,2013-01-07 23:53:00,
2013-01-07 19:03:00,25.0,12.0,30.28,SSE,168,0.0,-999.0,56,-99.99,,,-99.99,,2013-01-08 00:03:00,
2013-01-07 19:12:00,25.0,12.0,30.28,SSE,168,0.0,-999.0,56,-99.99,,,-99.99,,2013-01-08 00:12:00,
2013-01-07 19:22:00,24.0,12.0,30.28,SSE,168,0.0,-999.0,60,-99.99,,,-99.99,,2013-01-08 00:22:00,
2013-01-07 19:33:00,23.0,12.0,30.28,SSE,168,0.0,-999.0,62,-99.99,,,-99.99,,2013-01-08 00:33:00,
2013-01-07 19:42:00,23.0,12.0,30.28,SSE,168,0.0,-999.0,62,-99.99,,,-99.99,,2013-01-08 00:42:00,
2013-01-07 19:53:00,22.0,12.0,30.28,South,185,0.0,-999.0,66,-99.99,,,-99.99,,2013-01-08 00:53:00,
2013-01-07 20:03:00,22.0,13.0,30.29,South,185,0.0,-999.0,67,-99.99,,,-99.99,,2013-01-08 01:03:00,
2013-01-07 20:12:00,22.0,13.0,30.29,South,185,0.0,-999.0,67,-99.99,,,-99.99,,2013-01-08 01:12:00,
2013-01-07 20:22:00,22.0,14.0,30.28,South,185,0.0,-999.0,70,-99.99,,,-99.99,,2013-01-08 01:22:00,
2013-01-07 20:33:00,21.0,13.0,30.28,SSE,165,0.0,-999.0,71,-99.99,,,-99.99,,2013-01-08 01:33:00,
2013-01-07 20:42:00,21.0,13.0,30.28,SSE,165,0.0,-999.0,71,-99.99,,,-99.99,,2013-01-08 01:42:00,
2013-01-07 20:52:00,21.0,13.0,30.27,SSE,168,0.0,-999.0,72,-99.99,,,-99.99,,2013-01-08 01:52:00,
2013-01-07 21:02:00,21.0,14.0,30.27,SSE,168,0.0,-999.0,73,-99.99,,,-99.99,,2013-01-08 02:02:00,
2013-01-07 21:12:00,21.0,14.0,30.27,SSE,168,0.0,-999.0,73,-99.99,,,-99.99,,2013-01-08 02:12:00,
2013-01-07 21:22:00,21.0,14.0,30.27,SSE,167,0.0,-999.0,74,-99.99,,,-99.99,,2013-01-08 02:22:00,
2013-01-07 21:33:00,21.0,14.0,30.27,SSE,167,0.0,-999.0,74,-99.99,,,-99.99,,2013-01-08 02:33:00,
2013-01-07 21:42:00,21.0,14.0,30.27,SSE,167,0.0,-999.0,74,-99.99,,,-99.99,,2013-01-08 02:42:00,
2013-01-07 21:53:00,21.0,14.0,30.27,SSE,167,0.0,-999.0,74,-99.99,,,-99.99,,2013-01-08 02:53:00,
2013-01-07 22:03:00,20.0,14.0,30.27,South,174,0.0,-999.0,77,-99.99,,,-99.99,,2013-01-08 03:03:00,
2013-01-07 22:12:00,20.0,14.0,30.27,South,174,0.0,-999.0,77,-99.99,,,-99.99,,2013-01-08 03:12:00,
2013-01-07 22:22:00,20.0,14.0,30.27,SSE,155,0.0,-999.0,77,-99.99,,,-99.99,,2013-01-08 03:22:00,
2013-01-07 22:32:00,20.0,14.0,30.27,SSE,155,0.0,-999.0,77,-99.99,,,-99.99,,2013-01-08 03:32:00,
2013-01-07 22:43:00,20.0,14.0,30.27,SSE,155,0.0,-999.0,77,-99.99,,,-99.99,,2013-01-08 03:43:00,
2013-01-07 22:53:00,21.0,15.0,30.27,SSE,165,1.0,-999.0,76,-99.99,,,-99.99,,2013-01-08 03:53:00,
2013-01-07 23:02:00,22.0,16.0,30.26,SSE,168,0.0,-999.0,76,-99.99,,,-99.99,,2013-01-08 04:02:00,
2013-01-07 23:12:00,22.0,16.0,30.26,SSE,168,0.0,-999.0,76,-99.99,,,-99.99,,2013-01-08 04:12:00,
2013-01-07 23:22:00,22.0,16.0,30.26,SSE,168,0.0,-999.0,76,-99.99,,,-99.99,,2013-01-08 04:22:00,
2013-01-07 23:32:00,22.0,16.0,30.26,SSE,168,0.0,-999.0,76,-99.99,,,-99.99,,2013-01-08 04:32:00,
2013-01-07 23:42:00,22.0,16.0,30.26,SSE,168,0.0,-999.0,76,-99.99,,,-99.99,,2013-01-08 04:42:00,